BEIDOU 11 1 38091U 12008A 21056.70499738 .00000054 00000-0 00000+0 0 9991 2 38091 1.3178 64.2179 0008192 292.8426 111.2473 1.00268628 33058 CZ-3C DEB [VEB] 1 38095U 12008C 21054.93873083 .00017714 00000-0 17748-2 0 9998 2 38095 21.1165 346.8781 6913921 330.0925 4.1310 2.77873467 84331 CZ-3C DEB 1 40194U 12008D 21056.44674093 -.00000019 00000-0 00000-0 0 9991 2 40194 20.8831 40.6875 6435299 30.8074 354.7038 2.13031574 56616 CZ-3C DEB 1 40195U 12008E 21045.28191761 .00000196 00000-0 68548-3 0 9997 2 40195 19.9952 225.0672 7177404 272.7082 14.5044 2.33040334 61218 CZ-3C DEB 1 40196U 12008F 21055.07702104 .00000174 00000-0 80941-3 0 9992 2 40196 21.4793 232.3292 7090858 223.9324 50.6338 2.37123482 62985 CZ-3C DEB 1 40197U 12008G 21055.75484958 -.00000045 00000-0 00000-0 0 9995 2 40197 20.4563 114.8354 6986478 179.7570 180.9707 2.19836086 58348 CZ-3C DEB 1 40198U 12008H 21055.43923049 .00000162 00000-0 12825-2 0 9999 2 40198 19.6733 330.0447 7266917 107.7369 337.8698 2.16443063 57404 CZ-3C DEB 1 40199U 12008J 21055.03879000 -.00000204 00000-0 61503-2 0 9998 2 40199 18.2850 81.9584 7236800 283.4577 11.1047 2.08949480 61416 CZ-3C DEB 1 40200U 12008K 21056.32228611 .00000006 00000-0 00000-0 0 9992 2 40200 20.7216 118.0402 6998386 166.8770 230.9461 2.19204917 56221 CZ-3C DEB 1 40201U 12008L 21056.17706045 .00000128 00000-0 13331-1 0 9995 2 40201 21.6231 8.5319 7095818 355.2471 0.3784 2.24673258 59628 CZ-3C DEB 1 40202U 12008M 21055.57706809 -.00000147 00000-0 -21221-3 0 9999 2 40202 19.7727 220.1983 7144571 287.6097 10.6937 2.33705460 65373 CZ-3C DEB 1 40203U 12008N 21051.96345160 -.00000077 00000-0 -34790-5 0 9997 2 40203 20.3099 220.5544 7161716 271.8822 14.9370 2.33627840 61876 CZ-3C DEB 1 40204U 12008P 21051.80318328 .00000041 00000-0 17001-2 0 9999 2 40204 20.6740 331.0530 7088792 83.1691 345.9471 2.26928242 52596 CZ-3C DEB 1 40206U 12008R 21050.96086920 -.00000155 00000-0 -35775-4 0 9995 2 40206 18.3255 329.0913 7239878 137.4965 310.0064 2.18033483 51365 CZ-3C DEB 1 40207U 12008S 21054.48971547 .00000080 00000-0 82960-3 0 9997 2 40207 19.1899 294.1979 7231963 178.1907 187.7717 2.22087129 52285 CZ-3C DEB 1 40853U 12008T 21056.22513163 -.00000099 00000-0 14991-2 0 9993 2 40853 21.1567 348.1890 7052861 40.0468 354.5469 2.27867095 53659 CZ-3C DEB 1 40855U 12008V 21055.15173619 -.00000049 00000-0 12481-2 0 9991 2 40855 22.4606 304.7829 7061747 80.6562 22.0598 2.31854111 53343 CZ-3C DEB 1 40856U 12008W 21055.04959881 .00000123 00000-0 16555-2 0 9991 2 40856 21.6484 268.5861 7047449 165.2614 237.4472 2.35139550 53545 CZ-3C DEB 1 40857U 12008X 21054.00462678 .00000186 00000-0 88256-2 0 9996 2 40857 20.2843 2.8374 7133203 35.1551 355.5079 2.21528649 50691 CZ-3C DEB 1 40858U 12008Y 21056.40117711 -.00000039 00000-0 -19102-3 0 9992 2 40858 18.7876 7.7980 7287014 59.0286 352.5289 2.11592418 48126 CZ-3C DEB 1 40859U 12008Z 21054.94269792 .00000641 00000-0 57244-2 0 9992 2 40859 22.2493 330.0508 7237006 46.8708 354.0924 2.20806224 50050 CZ-3C DEB 1 40860U 12008AA 21052.91520758 .00000186 00000-0 85100-3 0 9998 2 40860 19.3163 313.3215 7302295 143.6501 300.7641 2.16804153 49070 CZ-3C DEB 1 40861U 12008AB 21054.31943870 .00000030 00000-0 36258-3 0 9997 2 40861 20.9910 305.8206 7092197 118.1452 328.8686 2.28852134 52017 CZ-3C DEB 1 40863U 12008AD 21052.99135903 -.00000212 00000-0 00000-0 0 9997 2 40863 21.2913 78.7438 7039554 235.8429 37.2341 2.20809635 49349 CZ-3C DEB 1 40867U 12008AH 21055.37886711 .00000109 00000-0 16591-2 0 9994 2 40867 21.9486 306.0034 7187300 95.6791 342.4185 2.24216386 64322 CZ-3C DEB 1 40868U 12008AJ 21054.24672932 .00000054 00000-0 00000-0 0 9993 2 40868 21.3158 127.5524 6825052 133.9881 307.7021 2.28119035951764 CZ-3C DEB 1 40869U 12008AK 21052.13133764 -.00000174 00000-0 95975-2 0 9996 2 40869 17.8045 82.2433 7273101 288.4629 9.7740 2.07708094 58889 CZ-3C DEB 1 42477U 12008AM 21056.51303593 .00000061 00000-0 76870-3 0 9996 2 42477 19.5695 152.2459 7063215 57.3053 351.7533 2.46914101 56282 CZ-3C DEB 1 42478U 12008AN 21056.04426497 -.00000012 00000-0 00000-0 0 9990 2 42478 21.3742 110.3106 6915561 176.8304 192.5073 2.24047939 46007